CZ-3B DEB, 42460

Orbit data source: Space-Track

CZ-3B DEB, 42460 is space debris in HEO originally from a launch on Sat, 04 Sep 2010 UTC launched from the Xichang Space Center, China (XSC). Debris objects in space refer to the collection of defunct objects orbiting the Earth. Examples of debris include non-operational satellites, rocket bodies, and fragments generated from explosions, collisions, or faulty payload assembly.

Loading next visibility...
Identifier
42460, 2010-042AB
Orbit
HEO
Country
Flag of CNCN / PRC
Related business
Manufacturer
CALT
Mission
Spacecraft
Bus & Motor
Unknown
Mass
Unknown
Launch date (UTC)
2010-09-04 (16 years ago)
Launch vehicle
Unknown
Launch site
Xichang Space Center, China (XSC)
Object type
Payload
Rocket body
Debris
Shape & HBR
Unknown shape, 0.2 m
Radar Cross Section
Medium (>0.1 m² and <1 m²)

Expand to show TLE details & history
Last TLE update: 3 days ago

TLE from 3 days ago
0 CZ-3B DEB
1 42460U 10042AB  26206.07376229  .00000741  00000-0  46597-2 0  9990
2 42460  29.9543  90.8656 7512863 118.1764 334.3211  1.90241029  2652
Epoch: 2026-07-25T01:46Z
TLE epoch observation values (Epoch: 2026-07-25T01:46:13.061Z)
Latitude
0.00003°
Longitude
121.52126°
Altitude
12,224.73 km
Speed
5.326 km/s
True Right ascension
06h 03m 28s
True Declination
0° 00' 00"
Sunlit
Object was in daylight at epoch
Visualization orbit readout
Latitude
Unknown
Longitude
Unknown
Altitude
Unknown
Speed
Unknown
Apparent Right ascension
Unknown
Apparent Declination
Unknown
Sunlit
N/A
Visualization observer readout
Local Sidereal Time
15:23:16
Azimuth
Unknown
Elevation
Unknown
Doppler factor
Unknown
Orbital elements
Apogee altitude
41,810.521 km
Perigee altitude
465.507 km
Semi-major axis
27,516.151 km
Eccentricity
0.75129
Inclination
29.9543°
RAAN
90.8656°
Arg. of periapsis
118.1764°
True anomaly
241.65272°
Mean anomaly
334.3211°
Eccentric anomaly
295.45395°
Mean motion
0.47551 °/min
Orbital period
757.08 mins
BSTAR
0.0046597
Loading maneuver chart data...
Computing Atmospheric mass density...
Loading historical data...
Loading historical data...
Loading historical data...
Loading historical data...
Loading historical data...
Loading historical data...
Loading historical data...

Documentation

Showing up to 5 results
|